This demonstration page uses our WeatherBlox Daily Observations layout. Learn more.

Left ArrowRight Arrow

38.20091, -84.87328

Hourly Observations for October 17, 2021

Temp ( °F °C ) Dew Point ( °F °C ) Humidity (%) Winds ( mph kmh ) Pressure ( in mb ) Visibility ( mi km ) Precip ( " mm )
12:53 am 00:53 Clear 46 7.8 40 4.4 79 79 N N/A 30.16 1021 10 16 N/A
1:53 am 01:53 Clear 43 6.1 39 3.9 86 86 WSW 3 6 30.16 1021 10 16 N/A
2:53 am 02:53 Clear 43 6.1 39 3.9 86 86 N N/A 30.16 1021 10 16 N/A
3:53 am 03:53 Clear 42 5.6 39 3.9 89 89 SW 7 11 30.16 1021 10 16 N/A
4:53 am 04:53 Clear 42 5.6 39 3.9 89 89 WSW 3 6 30.16 1022 10 16 N/A
5:53 am 05:53 Clear 44 6.7 40 4.4 85 85 WSW 6 9 30.17 1022 10 16 N/A
6:53 am 06:53 Clear 43 6.1 39 3.9 86 86 WSW 5 7 30.18 1022 10 16 N/A
7:53 am 07:53 Sunny 42 5.6 39 3.9 89 89 N N/A 30.19 1022 10 16 N/A
8:53 am 08:53 Sunny 45 7.2 41 5 86 86 SW 5 7 30.20 1023 10 16 N/A
9:53 am 09:53 Sunny 51 10.6 41 5 69 69 W 7 11 30.21 1023 10 16 N/A
10:53 am 10:53 Sunny 56 13.3 41 5 57 57 VRB 5 7 30.20 1023 10 16 N/A
11:53 am 11:53 Sunny 61 16.1 38 3.3 43 43 VRB 5 7 30.21 1023 10 16 N/A
12:53 pm 12:53 Sunny 63 17.2 36 2.2 37 37 WSW 8 13 30.20 1023 10 16 N/A
1:53 pm 13:53 Sunny 65 18.3 34 1.1 32 32 W 9 15 30.17 1022 10 16 N/A
2:53 pm 14:53 Sunny 66 18.9 35 1.7 32 32 W 13 20 30.15 1021 10 16 N/A
3:53 pm 15:53 Sunny 67 19.4 38 3.3 35 35 WSW 12 19 30.13 1020 10 16 N/A
4:53 pm 16:53 Sunny 68 20 37 2.8 32 32 W 8 13 30.12 1020 10 16 N/A
5:53 pm 17:53 Sunny 67 19.4 38 3.3 35 35 W 8 13 30.11 1020 10 16 N/A
6:53 pm 18:53 Sunny 62 16.7 41 5 46 46 W 6 9 30.11 1020 10 16 N/A
7:53 pm 19:53 Clear 54 12.2 44 6.7 69 69 N N/A 30.14 1021 10 16 N/A
8:53 pm 20:53 Clear 51 10.6 44 6.7 77 77 WSW 5 7 30.14 1021 10 16 N/A
9:53 pm 21:53 Clear 50 10 44 6.7 80 80 N N/A 30.15 1021 10 16 N/A
10:53 pm 22:53 Clear 49 9.4 44 6.7 83 83 N N/A 30.16 1021 10 16 N/A
11:53 pm 23:53 Clear 47 8.3 43 6.1 86 86 N N/A 30.16 1022 10 16 N/A

Powered by AerisWeather